Location: Beneden-Haastrecht
(52.0012°N, 4.7557°E)
Time: 02:38:10
(UTC+00:00)

CZ-4C R/B - Pass Details

Date: 24 October 2020
Orbit: 624 x 1378 km, 63.4° (Epoch: 27 November)

Event Time Altitude Azimuth Distance (km) Brightness Sun altitude
Rises 21:16:32 0° 314° (NW) 3,752 6.4 -42.5°
Reaches altitude 10° 21:18:58 10° 312° (NW) 2,900 5.6 -42.8°
Enters shadow 21:22:26 33° 305° (NW) 1,804 4.1 -43.1°
